METEOR 2-8 DEB

Satellite information

Favourite Embed

Satellite Type and Status

DEBRISIN ORBIT

Key statistics

Satellite METEOR 2-8 DEB at a glance.

Uptime

15811

Days in orbit

Revolutions

≈ 14.2

Per day

Orbit

LEO

Low Earth Orbit

Inclination

82.5

Latest

Satellite identification and parameters

Extended collection of information and parameters for METEOR 2-8 DEB.

Object identification

Identified? True

Debris? True

Object name: METEOR 2-8 DEB

International designator: 1982-025AD

Object number (NORAD): 36343

Object ID (CCSDS): 36343

Country: COMMONWEALTH OF INDEPENDENT STATES (CIS)

Current information (Y/N): Y

RCS size: SMALL

Orbital parameters

Period: 101.201 minutes

Inclination: 82.5075 deg

SMA: 7193.653 km

Apoapsis: 819.83 km

Periapsis: 811.206 km

RAAN: 134.3621 deg

Eccentricy: 0.0005994

Argument of periapsis: 163.3321 deg

Mean anomaly: 196.8059 deg

Mean motion: 14.22913647 rev/day

Mean motion (dot): 0.00003345 rev/day2

B* drag term: 0.001481 1/REarth

Two-line elements (TLE)

Creation date: July 6, 2025, 10:36 p.m.

Reference frame: TEME

Reference center: EARTH

Epoch: July 6, 2025, 1:50 p.m. UTC

TLE line 0: 0 METEOR 2-8 DEB

TLE line 1: 1 36343U 82025AD 25187.57675360 .00003345 00000-0 14810-2 0 9999

TLE line 2: 2 36343 82.5075 134.3621 0005994 163.3321 196.8059 14.22913647 97917

Live tracking on map

Real-time ground track for satellite METEOR 2-8 DEB.

In-orbit conjunctions

A list of the most updated potential collisions computed for object METEOR 2-8 DEB.

Target Orbit TCA Probability of collision Miss distance Type
DELTA 1 DEB SSO 2025-03-13 23:16:00 0.0001128926 208.0 (m) DEBRIS
CZ-6A DEB SSO 2024-08-27 01:41:23 0.0001505936 223.0 (m) DEBRIS
FENGYUN 1C DEB SSO 2024-07-25 08:08:31 0.0001062714 147.0 (m) DEBRIS
SL-16 R/B LEO 2024-05-29 04:11:42 0.0002697515 251.0 (m) ROCKET BODY

Associated space launch

Second generation soviet meteorological satellite

METEOR 2-8 DEB was lifted into orbit during the mission ‘Tsiklon-3 | Meteor-2 8’, on board a Tsiklon-3 space rocket.

The launch took place on March 25, 1982, 9:50 a.m. from 32/1.

For more information about the launch, click the button.

Launch to space Tsiklon-3 | Meteor-2 8
Tsiklon-3 | Meteor-2 8

Agency: N/A

Status: Launch Successful

Launch date: March 25, 1982, 9:50 a.m. UTC

Rocket: Tsiklon-3

Launch pad: 32/1

Location: Plesetsk Cosmodrome, Russian Federation

...

Latest news about this satellite

There are no fresh news available about this satellite. Check back as we update our databases every day.


Newsletter sign-up

Weekly statistics, charts and insights to help you stay on top of the space industry.